Torna al catalogo

DELTA 1 DEB

AttivoSSO
NORAD 20008·DEBRIS·🇺🇸 United States

Lanciato Mar 5, 1978 da Vandenberg Space Force Base

Loading…

Prossimi Passaggi (prossime 24 ore)

TLE

In scadenzaSource: Space-Track

Epoca: Sep 11, 2026, 04:13 UTC

1 20008U 78026HR  26254.17578593  .00000302  00000-0  23747-3 0  9998
2 20008  98.8483 144.4962 0198603 163.9092 196.8498 13.89856587 23289

Traccia DELTA 1 DEB in tempo reale con AllMySat

Download on the App Store